Yuki Tanaka

Olheiro-Chefe - Gamba Osaka
4 Abr 2028
Terça-feira
Processo

Personalidade

Adaptabilidade (2) Ambição (3) Controvérsia (3) Lealdade (18) Pressão (5) Profissionalismo (6) Espírito Esportivo (7) Temperamento (15)

Perfil

Estilo de Treinamento Democrático
Licença Continental B
Determinação 4
Gestão de Pessoas 8
Motivação 10
Disciplina 11
Satisfação no Trabalho
100%
Fadiga
0%
Função Olheiro-Chefe
Salário 20.4K p/s
Contrato 14.03.2029

Desempenho

Comportamento Bom
Eficácia do Treinamento
34%
Desenvolvimento do Jogador
60%
Prevenção de Lesões
35%
Implementação Tática
35%

Eventos Recentes

Participou de uma reunião de recrutamento 42d atrás
Recomendou um alvo de transferência 42d atrás
Recomendou um alvo de transferência 42d atrás
Recomendou um alvo de transferência 42d atrás
Recomendou um alvo de transferência 42d atrás
Recomendou um alvo de transferência 42d atrás
Participou de uma reunião de recrutamento 42d atrás
Participou de uma reunião de recrutamento 49d atrás

Monitorando agora

78
Jogador Clube Status Habilidade Confiança Observado Última observação Último voto
Denys Smetana Inhulets Ativo 91 / 122 40% 1 31.01.2028 -
José Neto Alverca Ativo 123 / 113 40% 1 31.01.2028 -
Jens Mathijsen Willem II Ativo 105 / 123 40% 1 31.01.2028 -
Jaydee Canvot Crystal Palace Ativo 132 / 150 40% 1 19.01.2028 -
Bahmed Deuff FC Metz Ativo 116 / 142 40% 1 19.01.2028 -
Nicolas Sport Recife Ativo 104 / 130 40% 1 19.01.2028 -
Jamie Cumming Swansea City Ativo 134 / 121 40% 1 11.01.2028 -
Sebastián Meza Huracán Negociando 132 / 116 40% 1 11.01.2028 -
Álvaro Fernández Gijón Ativo 143 / 124 40% 1 11.01.2028 -
Andile Zwane Rosario Central Ativo 124 / 124 67% 1 05.01.2028 Aprovar
Mikel Gogorza Minnesota United FC Ativo 117 / 130 67% 1 05.01.2028 Aprovar
Federico Losas Universidad Catolica Negociando 131 / 121 40% 1 05.01.2028 -
Florian Grillitsch Frosinone Ativo 143 / 153 40% 1 18.08.2027 -
Tony Springett Lecco Ativo 115 / 129 40% 2 17.08.2027 -
Yuma Suzuki Kashima Antlers Ativo 138 / 130 40% 1 17.08.2027 -
Tomy Carbonell Real Sociedad Ativo 112 / 127 40% 2 16.08.2027 -
Lorenzo Ignacchiti Empoli Ativo 131 / 133 40% 1 16.08.2027 -
David Okereke Cremonese Ativo 119 / 109 40% 2 15.08.2027 -
Gorka Gorosabel Real Sociedad Ativo 114 / 136 40% 1 15.08.2027 -
Zizo Al Ahly Ativo 132 / 118 40% 1 15.08.2027 -
Salah Mohsen El Masry Ativo 118 / 122 40% 1 13.08.2027 -
Jonathan Cañete Portuguesa Ativo 108 / 95 40% 1 10.08.2027 -
Giovanni Stellato Guidonia Montecelio Ativo 96 / 100 40% 1 03.08.2027 -
Lawrence Vigouroux Swansea City Ativo 127 / 138 40% 1 28.07.2027 -
Alfie Whiteman Barrow AFC Ativo 118 / 101 40% 1 28.07.2027 -
Vladan Kovačević Norwich City Ativo 126 / 105 40% 1 28.07.2027 -
Will Dennis Milton Keynes Dons Ativo 106 / 119 40% 1 23.07.2027 -
Seedy Jatta Sturm Graz Ativo 118 / 122 67% 1 22.07.2027 Aprovar
Tomáš Ladra Pumas UNAM Ativo 123 / 123 66% 1 22.07.2027 Aprovar
Amr Fathy Hajduk Split Ativo 121 / 121 66% 1 22.07.2027 Aprovar
Leon Nozawa FC Tokyo Ativo 107 / 110 42% 1 / 1m 26.05.2027 -
James Dornelly Peterborough United Ativo 98 / 120 40% 2 22.02.2027 Mais informações
Dylan Lawlor Cardiff City Ativo 119 / 123 40% 3 22.02.2027 Observar
Killian Cahill Leyton Orient Ativo 106 / 94 40% 2 22.02.2027 Mais informações
Raymond Agyemang Aduana Stars Ativo 74 / 78 40% 1 22.02.2027 -
Jake Eastwood Cambridge United Ativo 89 / 97 40% 1 19.02.2027 -
Daniel Iversen Preston Ativo 135 / 139 40% 1 19.02.2027 -
Sławomir Abramowicz Jagiellonia Ativo 130 / 119 40% 1 19.02.2027 -
Corey Addai Stockport County Ativo 105 / 85 40% 1 17.02.2027 -
Zach Hemming Chesterfield Ativo 117 / 94 40% 1 17.02.2027 -
Simone Scuffet Pisa Ativo 128 / 123 40% 1 17.02.2027 -
Williams Williams SuperSport United Ativo 113 / 120 40% 2 16.02.2027 -
Nikita Kokarev Krylya Sovetov Ativo 125 / 129 40% 1 16.02.2027 -
Alexandr Selikhov Ural Ativo 122 / 101 40% 1 16.02.2027 -
Evgeny Staver Rubin Ativo 105 / 113 40% 2 15.02.2027 -
Max O'Leary West Bromwich Albion Ativo 134 / 105 40% 2 15.02.2027 -
Bogdan Ovsyannikov Orenburg Ativo 120 / 111 40% 1 14.02.2027 -
Heorhii Yermakov Metalist Ativo 112 / 129 40% 1 13.02.2027 -
Will Mannion Charlton Athletic Ativo 108 / 126 40% 1 13.02.2027 -
Vanja Dragojević Partizan Ativo 113 / 126 40% 1 11.02.2027 -
Nathan Bishop AFC Wimbledon Ativo 106 / 99 40% 1 11.02.2027 -
Matouš Trmal Teplice Ativo 125 / 131 40% 1 11.02.2027 -
Joel Pereira Reading Ativo 118 / 103 40% 1 10.02.2027 -
Anatoli Gospodinov Arda Ativo 97 / 117 40% 1 10.02.2027 -
Svetoslav Vutsov Levski Ativo 122 / 137 40% 1 10.02.2027 -
Jean Butez Como Ativo 136 / 146 40% 1 08.02.2027 -
Joe Knight Stevenage Ativo 88 / 108 40% 1 01.02.2027 -
Ignacio Perruzzi San Lorenzo Ativo 129 / 131 40% 3 27.01.2027 -
Alessandro Zoboletti Sambenedettese Ativo 94 / 101 40% 2 27.01.2027 -
Lucas Mbamba Westerlo Ativo 98 / 90 40% 1 25.01.2027 -
Martim Cunha Porto Ativo 96 / 101 40% 1 18.01.2027 -
Taras Mykhavko Dynamo Kyiv Ativo 114 / 129 40% 1 18.01.2027 -
Mats Egbring Heerenveen Ativo 94 / 116 40% 1 18.01.2027 -
José Álvarez Arsenal Tula Ativo 117 / 131 40% 1 16.01.2027 -
Anton Miranchuk Dinamo Moscow Ativo 122 / 125 40% 1 16.01.2027 -
Yuto Ozeki Kawasaki Frontale Ativo 129 / 123 40% 1 14.01.2027 -
Patrik Kovács Fehervar Ativo 111 / 109 40% 1 14.01.2027 -
Brandon Khela Peterborough United Ativo 85 / 104 40% 1 13.01.2027 -
Matteo Pérez Vinlöf Dinamo Zagreb Ativo 117 / 137 40% 1 12.01.2027 -
Ronan Hale Gillingham Ativo 119 / 94 40% 1 10.01.2027 -
Tiago Freitas Benfica Ativo 106 / 126 40% 1 09.01.2027 -
Daniel Banjaqui Benfica Ativo 120 / 124 40% 1 08.01.2027 -
Ezra Mayers West Ham United Ativo 114 / 122 40% 2 07.01.2027 -
Miguel Figueiredo Benfica Ativo 115 / 122 40% 1 07.01.2027 -
Arjan Malić Sturm Graz Ativo 107 / 111 40% 1 06.01.2027 -
Elie N'Gatta Sochaux Ativo 90 / 99 40% 1 06.01.2027 -
Matvey Kislyak CSKA Moscow Ativo 136 / 128 40% 1 05.01.2027 -
Saël Kumbedi VfL Wolfsburg Ativo 122 / 148 40% 1 05.01.2027 -